Flag for U.S.A. Weather past 2 weeks in Rochester, New York, U.S.A.

Now
80 °F

Passing clouds.


Feels Like: 82 °F
Forecast: 67 / 83 °F
Wind: 5 mph from Southeast

Location: Greater Rochester International Airport

Current Time: Jul 27, 2015 at 9:45:51 PM

Latest Report: Jul 27, 2015 at 8:54 PM


Visibility: 10 mi

Pressure: 30.00 "Hg

Humidity: 58%

Dew point: 64 °F

Location of RochesterLocation

Historic Weather in Rochester — Graph

°F

Rochester temperature yesterday

Maximum temperature yesterday: 82 °F (at 12:54 PM)
Minimum temperature yesterday: 67 °F (at 11:54 PM)
Average temperature yesterday: 75 °F

Past Weeks' High & Low Weather Summary

 TemperatureHumidityPressure
High88 °F (Jul 19, 12:54 PM)96% (Jul 18, 4:57 AM)30.15 "Hg (Jul 18, 4:57 AM)
Low51 °F (Jul 16, 4:54 AM)30% (Jul 23, 4:54 PM)29.52 "Hg (Jul 14, 4:54 PM)
Average72 °F68%29.87 "Hg
* Reported Jul 12 8:54 PM — Jul 27 8:54 PM, Rochester, Weather by CustomWeather, © 2015

Note: Actual official high and low records may vary slightly from our data, if they occured in-between our weather recording intervals... More about our weather records

Advertising

Rochester weather history for previous 24 hours

 ConditionsComfort  
Time TempWeatherWind HumidityBarometerVisibility
8:54 PM
Mon, Jul 27
80 °FPassing clouds.5 mph58%30.00 "Hg10 mi
7:54 PM84 °FPassing clouds.6 mph49%29.98 "Hg10 mi
6:54 PM86 °FPassing clouds.6 mph48%29.98 "Hg10 mi
5:54 PM87 °FScattered clouds.9 mph46%29.98 "Hg10 mi
4:54 PM88 °FPartly sunny.3 mph40%29.99 "Hg10 mi
3:54 PM87 °FPassing clouds.No wind40%30.00 "Hg10 mi
2:54 PM86 °FPassing clouds.7 mph43%30.01 "Hg10 mi
1:54 PM86 °FPassing clouds.No wind45%30.01 "Hg10 mi
12:54 PM85 °FPassing clouds.3 mph46%30.02 "Hg10 mi
11:54 AM83 °FPassing clouds.5 mph50%30.03 "Hg10 mi
10:54 AM81 °FPassing clouds.No wind56%30.03 "Hg10 mi
9:54 AM76 °FPassing clouds.5 mph72%30.04 "Hg10 mi
8:54 AM72 °FSunny.6 mph78%30.03 "Hg10 mi
7:54 AM67 °FSunny.7 mph90%30.02 "Hg9 mi
6:54 AM64 °FFog.5 mph94%30.01 "Hg6 mi
5:54 AM63 °FClear.3 mph93%30.01 "Hg7 mi
4:54 AM63 °FFog.3 mph93%29.99 "Hg5 mi
3:54 AM64 °FClear.No wind94%29.98 "Hg9 mi
2:54 AM64 °FPassing clouds.No wind94%29.97 "Hg10 mi
1:54 AM65 °FClear.No wind91%29.97 "Hg10 mi
12:54 AM66 °FPassing clouds.No wind90%29.97 "Hg10 mi
11:54 PM
Sun, Jul 26
67 °FPartly cloudy.No wind87%29.98 "Hg10 mi
10:54 PM69 °FPassing clouds.No wind81%29.97 "Hg10 mi
9:54 PM70 °FPassing clouds.No wind81%29.97 "Hg10 mi
Weather by CustomWeather, © 2015

See weather overviewHow to use our weather pages